Camarillo, CA

1:26 PM PDT on August 27, 2016 (GMT -0700)
Camarillo

Weather History for KCMA - April, 2014

Change the Weather History Date:

Tuesday, April 29, 2014

  Actual Average Record
Temperature  
Mean Temperature 76 °F 60 °F  
Max Temperature 95 °F 70 °F 96 °F (1981)
Min Temperature 57 °F 49 °F 37 °F (1970)
Degree Days  
Heating Degree Days 0 6  
Month to date heating degree days 145 201  
Since 1 July heating degree days 1249 1814  
Cooling Degree Days 11 0  
Month to date cooling degree days 13 0  
Year to date cooling degree days 53 13  
Growing Degree Days 26 (Base 50)    
Moisture  
Dew Point 28 °F    
Average Humidity 28    
Maximum Humidity 51    
Minimum Humidity 5    
Precipitation  
Precipitation 0.00 in 0.02 in 0.79 in (1983)
Month to date precipitation 0.05 0.76  
Year to date precipitation 4.18 10.59  
Since 1 July precipitation 5.00  
Sea Level Pressure  
Sea Level Pressure 30.04 in    
Wind  
Wind Speed 17 mph (NE)    
Max Wind Speed 38 mph    
Max Gust Speed 48 mph    
Visibility 10 miles    
Events      
T = Trace of Precipitation, MM = Missing Value Source: NWS Daily Summary

Daily Weather History Graph

Daily Weather History Graph

Search for Another Location

Airport or City:

Trip Planner

Search our weather history database for the weather conditions in past years. The results will help you decide how hot, cold, wet, or windy it might be!

Date:

Astronomy

Apr. 29, 2014 Rise Set
Actual Time 6:08 AM PDT 7:39 PM PDT
Civil Twilight 5:42 AM PDT 8:05 PM PDT
Nautical Twilight 5:10 AM PDT 8:37 PM PDT
Astronomical Twilight 4:36 AM PDT 9:11 PM PDT
Moon 6:30 AM PDT (4/29) 8:23 PM PDT (4/29)
Length of Visible Light 14h 23m
Length of Day
13h 30m
New Moon, 0% of the Moon is Illuminated
Apr 29
New Moon
May 6
First Quarter
May 14
Full
May 21
Last Quarter
May 28
New

Hourly Weather History & Observations

Time (PDT) Temp. Dew Point Humidity Pressure Visibility Wind Dir Wind Speed Gust Speed Precip Events Conditions
12:55 AM 60.1 °F 43.0 °F 53% 30.03 in 10.0 mi SSW 3.5 mph - N/A   Clear
1:55 AM 63.0 °F 39.0 °F 41% 30.02 in 10.0 mi NNE 9.2 mph - N/A   Clear
2:55 AM 66.0 °F 37.0 °F 34% 30.01 in 10.0 mi NE 9.2 mph - N/A   Clear
3:55 AM 63.0 °F 37.0 °F 38% 30.02 in 10.0 mi ENE 6.9 mph - N/A   Clear
4:55 AM 71.1 °F 32.0 °F 24% 30.02 in 10.0 mi East 13.8 mph - N/A   Clear
5:55 AM 75.0 °F 27.0 °F 17% 30.04 in 10.0 mi East 20.7 mph 28.8 mph N/A   Clear
6:55 AM 77.0 °F 23.0 °F 13% 30.05 in 9.0 mi ENE 25.3 mph 36.8 mph N/A   Clear
7:55 AM 79.0 °F 24.1 °F 13% 30.06 in 10.0 mi ENE 25.3 mph 34.5 mph N/A   Clear
8:55 AM 81.0 °F 21.9 °F 11% 30.08 in 9.0 mi ENE 34.5 mph 41.4 mph N/A   Clear
9:55 AM 82.9 °F 21.0 °F 10% 30.09 in 8.0 mi NE 33.4 mph 42.6 mph N/A   Clear
10:55 AM 84.9 °F 19.9 °F 9% 30.09 in 10.0 mi NE 26.5 mph 42.6 mph N/A   Clear
11:55 AM 89.1 °F 19.9 °F 8% 30.08 in 10.0 mi ENE 29.9 mph 43.7 mph N/A   Clear
12:55 PM 91.9 °F 17.1 °F 6% 30.06 in 10.0 mi ENE 24.2 mph 32.2 mph N/A   Clear
2:55 PM 93.9 °F 15.1 °F 6% 30.03 in 10.0 mi ENE 26.5 mph 33.4 mph N/A   Clear
3:55 PM 93.9 °F 12.9 °F 5% 30.00 in 10.0 mi ENE 25.3 mph 31.1 mph N/A   Clear
4:55 PM 93.9 °F 14.0 °F 5% 29.99 in 10.0 mi NNE 13.8 mph 24.2 mph N/A   Clear
5:55 PM 82.9 °F 35.1 °F 18% 30.00 in 10.0 mi West 19.6 mph - N/A   Clear
6:55 PM 79.0 °F 34.0 °F 20% 30.00 in 10.0 mi West 12.7 mph - N/A   Clear
7:55 PM 75.9 °F 32.0 °F 20% 30.01 in 10.0 mi WNW 9.2 mph - N/A   Clear
8:55 PM 72.0 °F 33.1 °F 24% 30.03 in 10.0 mi Calm Calm - N/A   Clear
9:55 PM 68.0 °F 36.0 °F 31% 30.04 in 10.0 mi East 3.5 mph - N/A   Clear
10:55 PM 64.9 °F 37.0 °F 36% 30.04 in 10.0 mi ENE 4.6 mph - N/A   Clear
11:55 PM 60.1 °F 41.0 °F 49% 30.04 in 10.0 mi Calm Calm - N/A   Clear